User: anonymous   Login
Location: Unspecified
(0.0000°N, 0.0000°E)
Time: 21:38:46
(UTC+00:00)
Language:

Alouette 2 - Orbit

View from above orbital plane
View from above orbital plane
View from above satellite
View from above satellite

Ground track
Ground track

The orbit data is extracted from the following two-line orbital elements,

1 01804U 65098A   17235.16983020  .00000036  00000-0  13712-4 0  9995
2 01804  79.8037 125.9748 1342935 258.3071  86.4668 12.25287300284213
Epoch (UTC): 23 August 2017 04:04:33
Eccentricity: 0.1342935
inclination: 79.8037°
perigee height: 502 km
apogee height: 2637 km
right ascension of ascending node: 125.9748°
argument of perigee: 258.3071°
revolutions per day: 12.25287300
mean anomaly at epoch: 86.4668°
orbit number at epoch: 28421

The dashed part of the orbit path shows where the satellite is in the earth's shadow,  

DLR